www.pogodaiklimat.ru

Погода и климат >> Архив погоды >> Россия >> Воронежская область >> Воронеж


АРХИВ ПОГОДЫ в Воронеже

Время (UTC), дата Ветер
(напр.,м/с)
 
Видим.   Явления Облачность Т
(С)
Тd
(С)
f
(%)
Тe
(С)
Тes
(С)
Комфортность P
(гПа)
Po
(гПа)
Тmin
(С)
Tmax
(С)
R
(мм)
R24
(мм)
S
(см)
06 16.05 СЗ 3 4000 м дымка 10/10 600 м
[St]
+15.2 +14.0 93 +14 +14 по сезону 1018.4 1000.7
09 16.05 СЗ 4 10 км 10/9 1000 м
[Sc Ac trans]
+18.8 +13.9 73 +20 +20 тепло 1018.5 1001.0
12 16.05 СЗ 5 10 км 10/9 1000 м
[Sc Ac trans]
+19.8 +13.1 65 +21 +22 комфорт 1018.9 1001.5
15 16.05 С 2 10 км 8/6 1000 м
[Sc Ac trans]
+18.6 +13.3 71 +20 +21 тепло 1018.8 1001.3 +19.8
18 16.05 СЗ 2 10 км 4/0
[Ci fib]
+16.2 +13.2 82 +16 +16 тепло 1019.4 1001.8
21 16.05 С 1 10 км ясно +15.8 +12.2 79 +16 +16 тепло 1019.3 1002.1
00 17.05 СВ 2 10 км ясно +14.0 +12.0 88 +13 +13 тепло 1020.0 1002.3
03 17.05 СВ 3 10 км ясно +12.8 +10.3 85 +11 +12 по сезону 1020.7 1002.8 +12.8
06 17.05 С 3 10 км 6/0
[Ac trans Ci fib]
+16.0 +9.3 64 +16 +21 тепло 1021.3 1003.6
09 17.05 С 2 10 км 3/0
[Ci fib]
+19.9 +7.2 44 +21 +36 комфорт 1020.6 1003.0
12 17.05 С 3 10 км 8/0
[Ci]
+20.2 +5.7 39 +21 +29 комфорт 1019.9 1002.5
15 17.05 С 3 10 км 8/0
[Ci]
+19.6 +3.6 35 +20 +22 тепло 1019.6 1002.1 +20.8
18 17.05 С 1 10 км 8/0
[Ci]
+13.0 +7.9 71 +13 +13 по сезону 1019.9 1002.1
21 17.05 С 2 10 км ясно +12.8 +4.5 57 +12 +12 по сезону 1019.9 1002.1
00 18.05 СВ 2 10 км ясно +10.2 +4.6 68 +9 +9 по сезону 1020.5 1002.5
03 18.05 СВ 2 10 км ясно +9.6 +4.9 72 +8 +9 прохладно 1020.3 1002.2
06 18.05 СВ 1 10 км ясно +16.4 +5.1 47 +17 +28 тепло 1018.8 1001.2
09 18.05 С 2 10 км ясно +19.4 +3.9 36 +20 +37 опасность
простуды
1018.1 1000.6
12 18.05 С 2 10 км ясно +20.9 +4.8 35 +22 +34 комфорт 1016.4 999.0
15 18.05 С 1 10 км ясно +21.0 +4.4 34 +23 +26 комфорт 1015.2 997.8 +21.6
18 18.05 штиль 0 10 км ясно +14.7 +8.6 67 +15 +15 по сезону 1015.4 997.7
21 18.05 штиль 0 10 км ясно +11.5 +6.7 72 +11 +11 по сезону 1015.4 997.5
00 19.05 З 1 10 км ясно +9.3 +7.4 88 +9 +9 по сезону 1015.5 997.5
03 19.05 С 1 10 км ясно +11.9 +6.7 70 +12 +13 по сезону 1016.0 998.0 +9.0
06 19.05 СВ 2 10 км ясно +17.2 +6.2 48 +18 +27 тепло 1016.4 998.8
09 19.05 С 2 10 км ясно +20.8 +0.3 25 +21 +38 комфорт 1016.2 998.8
12 19.05 С 2 10 км ясно +22.8 +3.1 27 +22 +34 комфорт 1015.2 998.0
15 19.05 СЗ 3 10 км 3/0
[Ac trans]
+23.0 +3.4 28 +23 +24 комфорт 1014.9 997.7 +23.4
18 19.05 С 2 10 км ясно +18.8 +2.3 33 +20 +20 тепло 1016.4 998.9
21 19.05 С 1 10 км ясно +12.5 +4.9 60 +13 +13 по сезону 1018.2 1000.3
00 20.05 С 1 10 км ясно +11.6 +3.8 59 +12 +12 тепло 1019.1 1001.1
03 20.05 СВ 1 10 км ясно +11.4 +4.3 62 +11 +13 по сезону 1019.9 1001.9
06 20.05 С 2 10 км 8/0
[Ci fib]
+17.6 +2.8 37 +18 +26 тепло 1020.7 1003.0
09 20.05 СВ 3 10 км 6/0
[Ci fib]
+19.7 +3.2 33 +20 +32 тепло 1020.8 1003.2
12 20.05 СВ 3 10 км 6/0
[Ci fib]
+21.0 +3.1 31 +22 +31 комфорт 1020.0 1002.6
15 20.05 С 2 10 км 4/0
[Ci fib]
+21.3 +4.3 33 +22 +24 комфорт 1019.8 1002.4 +21.7
18 20.05 штиль 0 10 км 4/0
[Ci fib]
+14.9 +8.1 64 +15 +15 по сезону 1020.4 1002.6
21 20.05 штиль 0 10 км ясно +11.4 +7.9 79 +11 +11 по сезону 1020.9 1002.8
00 21.05 штиль 0 10 км ясно +9.7 +8.9 95 +9 +9 по сезону 1021.3 1003.1
03 21.05 штиль 0 10 км ясно +9.9 +9.3 96 +9 +11 прохладно 1021.4 1003.3 +8.6
06 21.05 Ю 2 10 км ясно +20.0 +4.3 36 +21 +30 комфорт 1021.1 1003.5
09 21.05 ЮВ 3 10 км 3/0
[Ci fib]
+22.2 +4.0 30 +22 +35 комфорт 1020.3 1003.0
12 21.05 ЮВ 4 10 км 3/0
[Ac trans Ci fib]
+23.5 +5.6 31 +23 +31 комфорт 1019.2 1002.0
15 21.05 ЮВ 2 10 км 6/0
[Ac trans Ci fib]
+23.1 +4.6 30 +23 +25 комфорт 1018.0 1000.8 +24.0
18 21.05 штиль 0 10 км 8/0
[Ci fib]
+16.6 +5.7 48 +17 +17 тепло 1017.7 1000.0
21 21.05 Ю 2 10 км 8/0
[Ci fib]
+16.5 +3.3 41 +17 +17 тепло 1017.3 999.7
00 22.05 штиль 0 10 км 6/0
[Ci fib]
+11.8 +6.3 69 +11 +11 по сезону 1016.7 998.7
03 22.05 Ю 1 10 км 9/0
[Ac trans Ci fib]
+13.4 +6.1 61 +14 +15 по сезону 1015.8 998.0 +10.8
06 22.05 В 1 10 км 8/0
[Ac trans Ci fib]
+19.0 +10.1 56 +21 +29 комфорт 1014.7 997.3
09 22.05 Ю 2 10 км 6/0
[Ac trans Ci fib]
+23.4 +9.9 42 +25 +37 комфорт 1013.2 996.0
12 22.05 Ю 2 10 км 9/6 1000 м
[Sc Ac trans Ci fib]
+23.7 +7.6 36 +24 +27 комфорт 1011.8 994.6
15 22.05 Ю 3 10 км 10/8 1000 м
[Sc Ac trans]
+20.8 +11.2 54 +23 +23 комфорт 1010.7 993.4 +24.8
18 22.05 ЮВ 4 10 км 10/6 1000 м
[Sc Ac trans]
+19.3 +8.8 51 +20 +20 тепло 1010.0 992.6
21 22.05 ЮВ 2 10 км слаб. ливневой дождь 10/10 1000 м
[Cb cap]
+15.2 +13.0 87 +15 +15 тепло 1009.5 992.0
00 23.05 штиль 0 10 км {ливн. осадки} 9/0
[Ac trans]
+15.0 +14.1 94 +15 +15 тепло 1008.2 990.7

 

Местоположение метеостанции Воронеж (Воронежская область, Россия): широта 51.70 долгота 39.21 высота над уровнем моря 149 м.

В архиве по умолчанию представлена погода в Воронеже за последнюю неделю. Архивные данные за месяц целиком и за предыдущие месяцы, начиная с января 2011 года, Вы можете получить, выбрав интересующий диапазон дат из раскрывающегося списка и нажав кнопку "Ввод!".


*Определитесь, кто Вы:
робот инопланетянин человек

Внимание! Время в таблицах - всемирное. Для получения местного времени необходимо прибавить поправку, которая равна 3 ч.

Смотрите также архив погоды в соседних городах и на ближайших метеорологических станциях:

Погода в Конь-Колодезе (Липецкая область, Россия) (50 км)
Погода в Нижнедевицке (Воронежская область, Россия) (60 км)
Погода в Лисках (Воронежская область, Россия) (80 км)
Погода в Анне (Воронежская область, Россия) (87 км)
Погода в Старом Осколе (Белгородская область, Россия) (102 км)
Погода в Липецке (Липецкая область, Россия) (113 км)
Погода в Ельце (Липецкая область, Россия) (114 км)
Погода в Каменной Степи (Воронежская область, Россия) (126 км)
Погода в Совхозе им. Ленина (Тамбовская область, Россия) (127 км)
Погода в Ливнах (Орловская область, Россия) (137 км)

Пояснения к столбцам:

Ветер - указаны скорость ветра в м/с - средняя за 10 мин, порывы в срок и между сроками (в фигурных скобках) и направление, откуда дует ветер: С - северный, СВ - северо-восточный, В - восточный, ЮВ - юго-восточный, Ю - южный, ЮЗ - юго-западный, З - западный, СЗ - северо-западный.
Видимость - горизонтальная дальность видимости в метрах или километрах. При видимости от 1 до 10 км при отсутствии осадков обычно наблюдается дымка, при ухудшении видимости до 1 км и менее - туман. В сухую погоду видимость может ухудшаться дымом, пылью или мглою.
Явления - указаны атмосферные явления, наблюдавшиеся в срок или в последний час перед сроком; фигурными скобками обозначены явления, наблюдавшиеся между сроками (за 1-3 часа до срока); квадратными скобками обозначены град или гололедные отложения с указанием их диаметра в мм.
Облачность - указаны через наклонную черту общая и нижняя облачность в баллах и высота нижней границы облаков в метрах; квадратными скобками обозначены формы облаков: Ci - перистые, Cs - перисто-слоистые, Cc - перисто-кучевые, Ac - высококучевые, As - высокослоистые, Sc - слоисто-кучевые, Ns - слоисто-дождевые, Cu - кучевые, Cb - кучево-дождевые. Подробнее классификацию облаков см. в Атласе облаков (PDF).
T - Температура воздуха - температура, измеренная на высоте 2 м над землей.
Td - Температура точки росы - температура, при понижении до которой содержащийся в воздухе водяной пар достигнет насыщения.
f - Относительная влажность воздуха - влажноcть воздуха, измеренная на высоте 2 м над землей.
Te - Эффективная температура - температура, которую ощущает одетый по сезону человек в тени. Характеристика душности погоды. При расчете учитывается влияние влажности воздуха и скорости ветра на теплоощущения человека.
Tes - Эффективная температура на солнце - температура, которую ощущает человек, с поправкой на солнечный нагрев. Характеристика знойности погоды. Зависит от высоты солнца над горизонтом, облачности и скорости ветра. Ночью, в пасмурную погоду, а также при ветре 12 м/с и более поправка равна нулю.
P - Атмосферное давление - приведенное к уровню моря атмосферное давление.
Po - Атмосферное давление - измеренное на уровне метеостанции атмосферное давление.
Tmin - Минимальная температура - минимум температуры воздуха на высоте 2 м над землей.
Tmax - Максимальная температура - максимум температуры воздуха на высоте 2 м над землей.
R - Количество осадков - Количество выпавших осадков за период времени, мм. При наведении курсора мыши на число - период времени, за который выпало указанное количество осадков.
R24 - Количество осадков - Количество выпавших осадков за 24 часа, мм.
S - Снежный покров - Высота снежного покрова, см. При наведении курсора мыши на число - состояние снежного покрова и степень покрытия местности в баллах.